シャルネツキー彗星

C/2022 A1 ( Sarneczky )

English version
Home page
Updated on March 4, 2025

---------------------------------------------------------------------

・ プロフィール

発見日 2022年1月2日
発見光度 18.2等
発見者 Krisztian Sarneczky (Piszkesteto Observatory, Hungary)

・ 写真集

・ 軌道要素

Epoch 2024 Oct. 17.0 TT = JDT 2460600.5                                         
T 2022 Jan. 31.00542 TT                                 Pike                    
q   1.2552462            (2000.0)            P               Q                  
z  +0.0007950      Peri.  201.22384     -0.09303965     +0.49857246             
 +/-0.0002255      Node   285.49882     +0.99264370     +0.11380053             
e   0.9990021      Incl.  116.57325     +0.07747333     -0.85934565             
From 317 observations 2021 Dec. 1-2022 Feb. 6, mean residual 0".5.              

・ 光度変化

        m1 = 18.5 + 5 logΔ + 10.0 log r

---------------------------------------------------------------------

軌道要素はM.P.E.C. 2025-A174に掲載されたものです。
光度グラフはComet for Windowsで作成したものです。

---------------------------------------------------------------------

Copyright(C) Seiichi Yoshida (comet@aerith.net). All rights reserved.